RH
17 18 7 5 4 5 3 2 2 1 1 1 1 2 2 2 4 4 6 8 28 35 29 30 30 24 22 20 16 36 53 96 100 100 98 99 80 98 100 100 100 90 87 71 57 68 87
18 19 13 5 5 6 4 2 2 2 2 2 2 1 2 2 3 4 5 7 11 25 31 31 32 31 24 25 19 17 18 34 89 100 100 100 97 84 97 100 100 100 99 80 83 95 89
20 17 19 7 6 6 6 3 2 2 2 2 2 2 2 2 2 3 4 6 7 11 21 33 32 30 32 22 26 22 18 17 24 57 98 100 100 100 100 92 90 97 88 85 74 78 70
20 18 22 12 6 6 9 5 2 2 2 2 2 2 2 2 2 2 3 5 7 8 16 25 36 34 30 30 28 23 20 19 20 24 35 46 90 100 100 100 100 99 95 93 80 83 79
18 21 19 21 8 7 8 8 4 2 2 2 2 2 2 3 3 3 3 4 6 9 10 21 35 34 28 30 30 31 33 32 27 25 26 23 28 94 94 98 100 100 100 94 94 85 74
19 23 19 21 17 8 8 11 8 4 3 2 2 2 3 3 3 3 3 4 6 9 11 21 31 30 23 24 31 34 32 31 29 28 26 23 22 48 64 69 95 96 96 98 93 90 90
21 22 23 19 23 14 8 11 12 8 7 4 3 3 3 3 4 4 4 5 6 10 13 15 20 20 18 20 31 40 42 36 35 37 39 35 26 23 18 18 33 79 84 73 60 87 85
22 22 24 23 20 26 13 8 13 14 9 12 9 8 5 4 4 5 5 5 7 11 15 15 15 17 17 14 29 38 41 43 41 39 39 44 38 30 23 20 20 18 17 15 21 72 42
21 24 26 24 23 21 26 13 9 16 14 12 12 11 13 14 8 6 6 5 7 13 18 18 17 17 20 14 18 39 46 42 42 40 39 39 40 40 37 33 32 32 29 24 21 21 20
22 25 26 27 26 25 23 28 16 10 12 15 13 13 12 12 14 16 15 15 17 16 16 15 15 17 19 17 17 30 42 40 42 45 44 42 40 42 41 43 48 48 43 41 40 38 35
17 22 27 29 28 27 26 25 28 23 11 12 16 15 14 11 11 12 15 17 17 18 18 17 17 18 18 15 14 18 33 46 47 48 43 42 42 40 38 42 48 47 44 44 43 41 36
14 16 21 30 29 31 30 29 27 28 27 17 11 14 18 18 17 16 15 16 14 19 22 24 24 27 24 21 16 16 22 30 32 34 35 36 38 37 39 44 44 44 44 40 35 32 31
20 18 19 20 31 34 34 32 28 29 30 35 34 17 12 12 19 23 22 20 21 27 22 19 19 20 14 14 18 21 25 29 33 34 36 38 38 38 39 39 38 37 35 35 35 35 35
23 21 18 20 20 29 36 41 36 30 27 30 31 38 34 19 14 15 21 26 26 25 25 24 24 21 18 19 19 19 22 27 31 33 34 36 39 38 37 33 33 37 39 37 36 30 23
36 24 22 19 21 21 30 25 40 42 36 32 33 32 34 36 40 38 32 20 16 17 22 27 28 25 25 24 22 22 23 24 26 29 32 32 32 32 36 39 34 25 20 18 17 15 15
44 36 26 24 20 19 21 28 24 32 46 40 40 37 36 40 35 34 41 44 45 39 31 26 23 21 23 27 28 31 31 32 33 34 34 33 30 29 28 32 33 32 33 33 28 24 23
38 42 37 27 28 22 19 19 28 28 29 36 39 42 40 40 43 45 49 43 39 42 38 43 45 44 42 35 29 30 29 31 36 38 42 47 47 46 43 40 34 31 30 29 29 29 30
52 44 44 39 32 32 32 20 21 24 28 35 29 28 28 29 32 37 42 43 51 51 52 57 57 54 44 44 36 39 42 41 43 46 45 43 42 40 37 36 35 34 32 32 32 33 32
81 59 50 46 50 46 39 44 22 22 21 26 36 36 29 26 23 30 30 32 35 40 43 49 52 51 52 50 47 48 49 49 49 46 45 41 41 40 39 38 39 42 42 41 41 41 43
86 90 63 56 58 47 53 45 48 32 26 24 27 42 45 39 33 32 29 26 27 29 32 29 30 28 30 32 37 36 36 34 32 34 32 33 37 37 38 36 38 41 41 40 40 42 42
64 93 85 66 63 65 56 61 46 48 52 29 26 34 40 61 52 43 34 35 31 31 30 26 25 26 25 25 30 30 27 26 27 26 27 29 31 34 36 38 44 52 60 64 63 59 58
97 77 90 76 73 62 60 80 62 59 68 55 34 38 37 52 68 66 53 49 47 40 41 34 34 34 31 30 28 30 30 28 30 29 26 25 26 28 30 36 36 41 41 46 52 55 57
100 100 100 73 77 97 64 98 74 85 70 80 50 50 49 46 52 45 88 74 62 47 58 49 42 45 44 42 53 46 33 30 36 42 46 49 50 47 42 45 48 42 47 43 45 51 48
62 100 91 78 67 98 99 92 50 62 100 90 87 70 62 67 74 58 47 75 87 83 66 70 64 72 51 76 71 76 72 60 49 46 45 63 73 64 68 66 65 70 71 76 73 74 68
96 84 90 67 96 70 57 100 60 74 65 61 86 99 88 60 75 87 79 70 60 79 60 72 84 68 90 70 80 77 89 81 81 77 83 69 69 93 90 82 75 79 81 90 96 99 91
100 100 100 93 71 100 94 98 100 100 92 80 72 89 84 100 98 72 84 79 65 66 36 58 80 74 50 99 91 79 99 100 100 98 90 83 58 86 89 96 83 87 99 100 100 100 92
98 83 99 100 100 100 100 94 100 67 100 99 100 98 92 100 100 100 99 85 83 81 67 52 53 45 54 41 89 97 78 78 100 100 100 100 100 98 83 87 76 74 93 100 100 100 88
91 88 87 100 100 100 100 100 100 76 100 98 99 100 100 100 100 100 100 100 100 99 100 100 94 76 64 56 41 76 100 68 44 62 66 57 100 100 87 76 98 73 88 96 91 85 85
100 100 100 88 82 78 74 78 100 100 100 100 100 100 100 100 100 100 100 100 100 100 100 100 96 84 100 87 100 100 99 97 87 70 91 82 83 83 80 73 95 100 99 100 100 100 100
Wind_Speed
93 92 92 81 71 66 61 49 42 31 19 8 11 25 36 49 61 69 82 96 103 99 93 89 84 86 84 104 104 103 102 102 101 102 99 95 93 90 88 86 84 82 83 81 80 75 76
99 94 99 87 77 70 63 50 41 31 22 11 3 12 23 33 48 58 67 83 95 102 99 91 85 80 75 91 102 98 98 99 99 98 97 97 95 94 89 88 87 85 82 82 79 78 77
101 95 100 95 85 76 69 55 43 33 25 15 8 6 10 22 33 47 59 71 83 92 96 93 88 81 76 73 88 95 94 93 94 94 94 93 96 93 90 89 89 86 84 84 81 80 79
103 97 97 102 91 81 76 65 49 41 32 23 18 13 14 16 28 38 55 65 73 79 89 90 91 87 77 72 69 76 85 90 90 89 87 88 92 93 87 83 84 88 87 87 89 88 89
103 100 96 101 97 87 81 74 62 52 45 37 29 22 17 18 20 34 52 59 61 68 76 90 93 88 80 70 62 64 69 77 86 87 87 86 85 86 87 87 81 77 83 86 87 87 89
105 103 99 98 104 94 85 80 70 60 60 52 43 31 24 25 22 26 35 47 55 61 64 82 91 87 77 66 63 62 60 59 59 65 78 82 81 82 84 84 84 84 82 79 82 85 87
102 108 108 99 99 104 91 83 77 68 64 61 55 45 32 29 26 28 32 38 44 49 62 69 73 74 71 66 65 64 61 55 51 47 55 69 79 81 79 79 81 84 86 86 86 87 88
96 102 111 105 99 100 101 88 83 75 67 66 63 60 50 38 31 26 27 35 43 49 48 54 56 55 56 52 62 65 62 59 54 48 43 48 58 68 74 76 77 78 81 81 82 82 83
90 98 105 111 106 100 99 98 88 80 72 67 62 61 59 53 45 35 27 27 31 35 34 35 40 48 59 52 54 65 65 59 53 46 44 40 39 44 50 55 58 63 71 79 81 82 82
83 92 99 103 111 107 102 98 99 86 79 72 65 61 57 53 51 46 39 34 29 26 24 26 31 36 41 45 46 58 60 54 51 49 46 42 37 35 38 42 45 51 58 66 72 77 80
80 85 91 98 103 108 107 103 96 99 87 79 75 66 62 55 52 53 52 48 44 39 28 23 11 16 24 24 34 42 57 62 56 50 43 41 39 36 36 39 41 43 46 50 54 57 61
73 79 85 90 96 102 106 106 103 96 94 93 80 74 68 65 61 57 54 51 47 47 40 41 33 28 15 18 21 31 40 45 44 41 38 37 37 35 36 38 42 45 47 50 54 55 54
68 74 76 80 87 93 98 102 103 102 97 91 91 86 74 69 65 61 59 54 49 47 39 37 33 30 31 29 28 28 30 33 36 34 32 30 32 35 38 40 45 47 49 48 47 48 50
62 65 71 73 78 83 88 93 97 102 101 97 91 83 81 80 74 66 60 53 49 44 41 39 34 30 26 26 32 35 36 35 31 27 22 27 30 31 35 37 39 42 44 44 44 46 46
52 56 61 68 69 74 79 86 87 90 95 98 97 94 85 76 75 75 73 66 57 51 45 40 34 28 22 18 16 15 17 17 19 19 21 23 24 26 29 32 35 34 30 28 28 27 25
41 47 53 57 61 65 72 73 79 82 84 87 87 90 86 84 81 74 74 65 64 63 59 54 47 38 29 22 17 13 9 7 4 7 12 14 14 11 3 2 6 7 8 11 9 7 5
37 38 43 49 51 55 61 65 68 70 75 76 80 79 78 79 81 82 80 74 71 66 59 59 53 52 50 47 42 37 34 30 27 26 24 22 18 16 15 13 14 14 13 11 11 11 13
26 33 35 38 43 46 49 57 59 65 65 67 69 71 74 74 74 77 75 72 71 69 68 66 64 62 60 57 54 49 46 44 43 42 41 38 37 36 35 34 35 35 35 35 34 34 33
19 25 27 32 33 36 39 43 50 53 57 57 59 61 63 66 71 70 70 69 71 72 70 70 68 68 66 63 61 58 56 55 53 51 51 50 50 50 50 52 54 54 53 54 56 53 49
19 15 21 25 28 32 30 33 36 42 48 49 49 51 52 55 60 63 64 65 63 64 63 63 63 64 63 61 60 59 56 56 56 56 55 55 57 59 57 58 57 56 54 53 53 56 56
14 13 14 21 23 26 25 25 28 30 33 39 43 42 45 44 46 50 54 54 56 56 57 57 56 56 58 58 56 55 55 56 53 53 53 54 52 51 53 52 54 54 53 53 53 54 54
11 14 14 19 21 18 21 20 22 22 24 26 32 36 33 38 39 39 41 43 44 49 50 49 50 47 46 49 53 50 50 50 50 51 49 51 51 53 51 51 53 52 53 52 51 51 53
10 13 13 15 16 14 18 16 20 20 19 19 21 28 32 28 32 35 31 32 35 40 37 40 42 42 43 41 41 44 44 46 47 47 46 46 48 49 49 51 51 52 52 54 54 55 56
15 11 17 13 15 12 17 16 18 15 17 16 15 17 21 26 20 25 31 26 24 27 31 31 35 33 34 32 32 32 34 36 39 42 44 43 42 44 44 45 46 47 48 49 51 51 53
23 15 17 12 12 12 20 21 20 14 13 14 13 14 18 16 21 17 24 23 22 19 23 21 24 31 29 28 28 29 26 31 30 32 34 38 40 39 39 41 42 43 44 45 44 45 49
27 27 26 24 16 18 18 20 19 22 20 15 10 11 17 12 13 25 21 21 21 22 25 20 19 23 25 24 24 31 29 33 36 32 33 33 32 35 40 43 39 41 41 42 43 43 46
36 35 32 29 29 24 26 21 23 26 28 22 22 17 12 15 22 26 25 19 20 18 22 21 20 20 17 18 21 24 23 23 28 31 31 30 32 32 33 36 44 38 41 40 42 42 47
45 41 36 35 35 33 30 29 31 23 24 30 26 21 19 24 26 25 25 27 28 21 23 24 25 27 25 19 21 22 25 26 27 26 25 26 30 37 37 38 36 40 38 41 43 47 48
49 48 50 47 42 44 43 41 39 38 41 37 36 34 32 32 34 34 31 32 28 27 28 34 27 26 24 29 33 38 35 36 40 43 37 36 41 42 45 48 43 44 45 43 45 49 53
Wind_Direction
5 9 10 12 9 10 6 358 356 353 347 330 236 220 222 221 218 216 215 217 219 223 224 223 224 225 227 224 227 227 229 230 232 233 233 236 237 239 240 241 242 243 244 247 248 252 254
8 12 14 15 16 18 15 7 7 7 6 20 314 211 207 214 215 212 211 214 216 218 221 223 224 226 223 222 225 227 230 230 231 234 235 235 236 237 240 241 243 243 245 247 249 253 254
11 14 17 18 20 23 22 19 21 21 26 37 72 131 179 198 201 204 204 209 212 214 218 222 225 224 224 223 223 227 228 231 233 234 235 235 236 239 241 243 244 246 247 249 250 255 256
15 15 20 22 23 25 30 25 30 38 39 51 74 102 130 166 188 190 194 201 206 209 211 217 223 225 222 221 220 224 229 231 232 235 236 238 238 240 240 244 247 248 249 251 252 255 259
18 19 22 25 27 27 32 34 33 42 49 54 61 76 102 129 162 181 189 193 197 202 205 210 217 222 222 218 220 221 224 228 231 234 234 236 238 239 241 244 245 247 251 253 255 258 261
24 23 23 27 30 31 32 39 36 41 51 50 55 61 84 106 126 161 181 187 188 195 200 206 214 218 219 214 216 223 224 222 228 232 234 237 238 240 242 244 245 245 248 252 256 257 258
27 28 27 28 31 34 36 39 40 43 50 57 57 58 67 88 110 136 157 170 180 186 197 205 214 218 220 214 216 224 226 227 231 235 237 236 238 240 243 247 249 250 252 254 256 257 258
28 28 29 30 32 35 37 42 45 42 48 55 62 62 65 72 88 108 138 157 168 177 190 201 210 218 222 218 222 224 227 228 231 234 238 237 238 242 246 249 251 254 256 256 257 258 261
27 30 33 32 33 35 39 40 46 48 48 54 59 65 69 69 71 83 102 130 151 164 176 192 204 213 220 222 219 223 225 228 230 232 230 235 235 239 243 247 252 257 259 260 260 260 260
26 31 34 33 34 36 38 41 44 49 53 56 59 64 71 76 80 81 85 99 117 132 152 168 188 202 217 222 227 225 229 230 231 234 236 240 243 247 248 246 252 255 255 256 258 259 261
28 30 33 35 36 37 39 41 43 48 52 55 60 65 69 75 84 91 91 90 97 92 86 96 132 185 209 213 213 202 214 223 229 231 233 238 238 240 243 245 249 253 255 258 259 260 262
30 30 32 34 38 39 41 43 43 45 50 53 57 62 67 71 74 79 86 92 92 94 101 104 107 110 151 193 200 198 203 212 219 222 223 227 231 237 244 249 251 255 258 260 264 267 269
29 29 33 33 37 40 42 44 46 48 49 50 53 56 60 64 70 72 74 76 78 84 85 91 101 113 127 139 143 163 178 197 209 215 222 231 237 241 244 250 256 262 269 274 278 281 281
29 31 32 35 39 41 42 44 45 47 50 51 54 54 57 62 64 67 71 74 77 77 78 81 85 92 113 136 147 157 169 184 192 199 218 231 235 244 253 267 277 283 284 283 281 279 279
33 32 33 33 38 42 44 44 46 47 49 52 52 54 56 58 62 65 67 68 71 73 73 76 77 81 91 107 128 161 173 186 199 215 225 239 256 270 276 283 283 283 283 284 284 285 285
37 33 32 34 38 41 43 46 46 48 50 53 55 54 56 59 61 64 65 64 68 72 76 78 78 80 85 90 96 105 119 140 183 230 250 263 274 269 262 76 70 62 59 44 38 35 40
28 37 36 35 36 40 42 42 46 47 50 52 57 60 59 59 61 63 65 65 65 67 70 72 74 76 79 82 85 89 92 94 94 94 94 93 91 85 82 76 67 58 54 48 44 40 32
22 33 37 36 37 38 43 42 44 46 48 53 53 56 58 58 59 65 67 66 68 69 70 72 73 74 77 80 82 85 86 86 86 85 83 82 81 78 75 71 67 62 57 54 51 47 45
11 22 32 35 37 37 39 43 42 43 46 49 53 54 53 55 55 59 61 64 67 70 72 74 75 76 76 77 77 78 78 78 77 77 77 74 70 67 65 63 62 61 59 58 55 52 47
9 5 23 26 31 32 32 38 42 46 45 45 52 54 53 55 52 52 54 58 60 62 66 69 69 68 70 72 73 73 73 71 70 70 68 68 69 69 69 68 63 62 62 60 57 54 53
350 4 16 10 18 18 25 33 41 40 44 45 47 49 54 56 56 54 49 48 53 55 55 58 61 63 62 62 65 65 63 64 64 61 61 62 60 59 59 59 56 53 52 53 50 48 45
312 338 344 345 353 8 9 31 30 34 36 41 41 46 53 56 54 54 53 51 47 45 50 50 53 52 53 56 58 57 57 55 53 51 52 50 50 48 48 47 44 42 42 40 40 37 37
295 288 315 334 330 339 350 348 4 7 22 27 34 33 39 55 58 47 44 47 45 38 36 41 43 45 47 46 44 44 42 42 44 41 39 38 35 34 34 32 33 32 30 28 29 26 24
279 278 293 308 314 311 324 326 347 346 355 5 14 19 27 28 38 41 35 35 40 40 32 30 32 36 42 44 41 37 37 33 31 30 30 30 24 22 23 23 21 21 21 20 19 17 14
263 275 267 284 292 306 319 305 323 335 345 345 351 348 355 15 25 12 10 20 25 24 20 24 27 19 20 27 29 26 29 20 19 22 23 17 16 15 13 10 11 10 10 11 11 10 9
261 252 265 273 282 283 289 300 289 301 308 320 336 332 339 350 9 355 349 350 357 1 7 6 8 6 12 6 9 12 5 3 7 1 2 5 8 6 3 359 2 0 359 1 1 2 359
262 265 271 266 274 269 277 274 278 296 292 309 305 306 324 318 305 327 338 332 337 335 340 340 336 340 341 352 351 346 355 353 347 352 349 355 347 344 347 353 346 351 352 353 353 351 346
275 274 265 268 264 268 266 273 276 272 270 284 285 284 294 297 308 305 315 327 318 332 327 319 317 325 328 320 329 332 330 330 333 330 327 336 331 319 326 335 335 335 340 339 338 337 338
270 269 265 266 261 275 281 272 271 269 274 275 275 281 281 287 294 295 299 303 305 306 309 311 312 308 306 323 319 323 319 322 324 328 324 315 328 319 317 320 327 325 328 327 328 328 330